Location: Hains Lake
(37.8540°N, 99.8578°W)
Time: 18:47:05
(UTC+00:00)

Vanguard 3 - Pass Details

Date: 22 April 2021
Orbit: 508 x 3262 km, 33.4° (Epoch: 13 May)

Event Time Altitude Azimuth Distance (km) Brightness Sun altitude
Exits shadow 09:54:03 33° 144° (SE) 865 7.2 -22.0°
Drops below altitude 10° 09:56:30 10° 113° (ESE) 1,717 9.2 -21.6°
Sets 09:58:45 0° 106° (ESE) 2,668 10.4 -21.3°
